User: anonymous   Login
Location: Vancouver
(49.2500°N, 123.1330°W)
Time: 19:30:32
(UTC-07:00)
Language:

ISS - Orbit

View from above orbital plane
View from above orbital plane
View from above satellite
View from above satellite

Ground track
Ground track

The orbit data is extracted from the following two-line orbital elements,

1 25544U 98067A   15187.82479071  .00008120  00000-0  12319-3 0  9990
2 25544 051.6455 345.9537 0003222 126.1904 021.0324 15.55575264951097
Epoch (UTC): 06 July 2015 19:47:41
Eccentricity: 0.0003222
inclination: 51.6455°
perigee height: 398 km
apogee height: 402 km
right ascension of ascending node: 345.9537°
argument of perigee: 126.1904°
revolutions per day: 15.55575264
mean anomaly at epoch: 21.0324°
orbit number at epoch: 95109

The dashed part of the orbit path shows where the satellite is in the earth's shadow,  

DLR